| time (UTC) | temp F | wind direction | speed MPH | gust MPH | rain 1hr in | rain 24hr in | rain mn in | humidity % | barometer mb |
| 20260506001528 | 55 | 107 | 0.0 | 1.0 | 0.00 | 0.55 | 0.20 | 90 | 1010.4 |
| 20260506000026 | 55 | 107 | 0.0 | 0.0 | 0.04 | 0.55 | 0.20 | 90 | 1010.6 |
| 20260505234533 | 55 | 107 | 0.0 | 1.0 | 0.10 | 0.55 | 0.20 | 90 | 1010.8 |
| 20260505233023 | 55 | 92 | 0.0 | 2.0 | 0.14 | 0.55 | 0.20 | 90 | 1010.7 |
| 20260505231523 | 55 | 92 | 1.0 | 3.0 | 0.16 | 0.55 | 0.20 | 90 | 1010.9 |
| 20260505230036 | 55 | 67 | 0.0 | 1.0 | 0.16 | 0.51 | 0.16 | 89 | 1010.9 |
| 20260505224519 | 55 | 67 | 0.0 | 0.0 | 0.13 | 0.44 | 0.09 | 89 | 1010.9 |
| 20260505223018 | 55 | 67 | 0.0 | 1.0 | 0.11 | 0.41 | 0.06 | 89 | 1011.0 |
| 20260505221517 | 55 | 67 | 0.0 | 1.0 | 0.12 | 0.39 | 0.04 | 89 | 1011.1 |
| 20260505220018 | 55 | 67 | 0.0 | 1.0 | 0.09 | 0.35 | 0.00 | 89 | 1011.2 |
| 20260505214519 | 55 | 67 | 0.0 | 1.0 | 0.05 | 0.31 | 0.31 | 89 | 1011.4 |
| 20260505213013 | 55 | 67 | 0.0 | 1.0 | 0.06 | 0.30 | 0.30 | 89 | 1011.5 |
| 20260505211513 | 55 | 67 | 0.0 | 0.0 | 0.04 | 0.27 | 0.27 | 89 | 1011.8 |
| 20260505210013 | 55 | 67 | 0.0 | 2.0 | 0.03 | 0.26 | 0.26 | 89 | 1011.8 |
| 20260505204512 | 55 | 84 | 0.0 | 2.0 | 0.03 | 0.26 | 0.26 | 89 | 1011.9 |
| 20260505203012 | 55 | 176 | 0.0 | 0.0 | 0.01 | 0.24 | 0.24 | 89 | 1011.8 |
| 20260505201511 | 55 | 176 | 0.0 | 0.0 | 0.00 | 0.23 | 0.23 | 88 | 1011.8 |
| 20260505200025 | 55 | 176 | 0.0 | 1.0 | 0.00 | 0.23 | 0.23 | 88 | 1011.6 |
| 20260505194510 | 56 | 176 | 0.0 | 2.0 | 0.00 | 0.23 | 0.23 | 88 | 1011.5 |
| 20260505193010 | 56 | 142 | 0.0 | 5.0 | 0.00 | 0.23 | 0.23 | 88 | 1011.5 |
| 20260505191509 | 55 | 213 | 1.0 | 3.0 | 0.00 | 0.23 | 0.23 | 88 | 1011.3 |
| 20260505190008 | 55 | 54 | 1.0 | 3.0 | 0.00 | 0.23 | 0.23 | 88 | 1011.1 |
| 20260505184508 | 55 | 54 | 0.0 | 1.0 | 0.00 | 0.23 | 0.23 | 88 | 1011.3 |
| 20260505183008 | 56 | 42 | 0.0 | 1.0 | 0.00 | 0.23 | 0.23 | 88 | 1011.3 |
| 20260505181507 | 56 | 94 | 0.0 | 2.0 | 0.00 | 0.23 | 0.23 | 88 | 1011.2 |
| 20260505180006 | 56 | 100 | 0.0 | 2.0 | 0.00 | 0.23 | 0.23 | 88 | 1011.2 |
| 20260505174506 | 56 | 73 | 0.0 | 3.0 | 0.00 | 0.23 | 0.23 | 88 | 1011.2 |
| 20260505173021 | 56 | 119 | 0.0 | 2.0 | 0.00 | 0.23 | 0.23 | 88 | 1011.3 |
| 20260505171505 | 56 | 115 | 0.0 | 3.0 | 0.00 | 0.23 | 0.23 | 88 | 1011.2 |
| 20260505170003 | 56 | 106 | 1.0 | 5.0 | 0.00 | 0.23 | 0.23 | 89 | 1011.2 |
| 20260505164503 | 55 | 115 | 2.0 | 5.0 | 0.00 | 0.23 | 0.23 | 89 | 1011.3 |
| 20260505163009 | 55 | 78 | 0.0 | 4.0 | 0.00 | 0.23 | 0.23 | 88 | 1011.4 |
| 20260505161505 | 55 | 86 | 2.0 | 5.0 | 0.00 | 0.23 | 0.23 | 89 | 1011.4 |
| 20260505153116 | 54 | 185 | 4.0 | 8.0 | 0.01 | 0.23 | 0.23 | 89 | 1011.8 |
| 20260505151604 | 54 | 159 | 3.0 | 7.0 | 0.01 | 0.23 | 0.23 | 89 | 1011.8 |
| 20260505140105 | 55 | 109 | 2.0 | 5.0 | 0.01 | 0.22 | 0.22 | 88 | 1012.0 |
| 20260505124550 | 55 | 123 | 2.0 | 5.0 | 0.01 | 0.21 | 0.21 | 88 | 1012.0 |
| 20260505123057 | 55 | 213 | 1.0 | 5.0 | 0.01 | 0.21 | 0.21 | 88 | 1012.0 |
| 20260505121549 | 55 | 106 | 0.0 | 3.0 | 0.01 | 0.21 | 0.21 | 88 | 1012.1 |
| 20260505120048 | 55 | 346 | 0.0 | 1.0 | 0.01 | 0.21 | 0.21 | 87 | 1012.2 |
| 20260505114548 | 55 | 346 | 0.0 | 3.0 | 0.00 | 0.20 | 0.20 | 87 | 1012.2 |
| 20260505113049 | 55 | 290 | 1.0 | 6.0 | 0.00 | 0.20 | 0.20 | 87 | 1012.1 |
| 20260505111554 | 55 | 330 | 3.0 | 7.0 | 0.00 | 0.20 | 0.20 | 86 | 1012.0 |
| 20260505101545 | 55 | 275 | 2.0 | 4.0 | 0.00 | 0.20 | 0.20 | 87 | 1012.1 |
| 20260505100050 | 55 | 299 | 4.0 | 8.0 | 0.00 | 0.20 | 0.20 | 87 | 1012.0 |
| 20260505094543 | 55 | 333 | 3.0 | 6.0 | 0.00 | 0.20 | 0.20 | 88 | 1012.0 |
| 20260505093043 | 55 | 310 | 2.0 | 7.0 | 0.01 | 0.20 | 0.20 | 88 | 1011.9 |
| 20260505091553 | 55 | 314 | 1.0 | 6.0 | 0.03 | 0.20 | 0.20 | 88 | 1011.9 |
| 20260505090054 | 54 | 9 | 3.0 | 6.0 | 0.05 | 0.20 | 0.20 | 88 | 1011.9 |
| 20260505084546 | 54 | 310 | 2.0 | 6.0 | 0.09 | 0.20 | 0.20 | 87 | 1011.8 |
| 20260505083048 | 54 | 315 | 3.0 | 4.0 | 0.13 | 0.19 | 0.19 | 87 | 1011.8 |
| 20260505081555 | 54 | 247 | 0.0 | 2.0 | 0.14 | 0.17 | 0.17 | 87 | 1011.8 |
| 20260505080046 | 53 | 205 | 0.0 | 1.0 | 0.14 | 0.15 | 0.15 | 87 | 1011.9 |
| 20260505074559 | 53 | 205 | 0.0 | 2.0 | 0.11 | 0.11 | 0.11 | 86 | 1012.1 |
| 20260505073038 | 54 | 205 | 0.0 | 1.0 | 0.06 | 0.06 | 0.06 | 86 | 1012.2 |
| 20260505071535 | 55 | 205 | 0.0 | 1.0 | 0.03 | 0.03 | 0.03 | 85 | 1012.1 |
| 20260505070032 | 55 | 205 | 0.0 | 1.0 | 0.01 | 0.01 | 0.01 | 81 | 1011.9 |
| 20260505064533 | 55 | 205 | 0.0 | 2.0 | 0.00 | 0.00 | 0.00 | 79 | 1011.7 |
| 20260505063038 | 56 | 205 | 0.0 | 2.0 | 0.00 | 0.00 | 0.00 | 81 | 1011.4 |
| 20260505061533 | 57 | 190 | 0.0 | 1.0 | 0.00 | 0.00 | 0.00 | 79 | 1011.4 |
| 20260505060027 | 57 | 190 | 0.0 | 0.0 | 0.00 | 0.00 | 0.00 | 78 | 1011.3 |
| 20260505054529 | 57 | 190 | 0.0 | 2.0 | 0.00 | 0.00 | 0.00 | 76 | 1011.2 |
| 20260505053026 | 57 | 261 | 1.0 | 4.0 | 0.00 | 0.00 | 0.00 | 74 | 1010.9 |
| 20260505051529 | 56 | 325 | 0.0 | 0.0 | 0.00 | 0.00 | 0.00 | 78 | 1011.0 |
| 20260505041523 | 56 | 315 | 0.0 | 3.0 | 0.00 | 0.00 | 0.00 | 76 | 1010.8 |
| 20260505040023 | 57 | 296 | 0.0 | 1.0 | 0.00 | 0.00 | 0.00 | 74 | 1010.8 |
| 20260505034521 | 58 | 295 | 0.0 | 4.0 | 0.00 | 0.00 | 0.00 | 68 | 1010.7 |
| 20260505033031 | 58 | 248 | 3.0 | 6.0 | 0.00 | 0.00 | 0.00 | 69 | 1010.9 |
| 20260505031519 | 58 | 348 | 0.0 | 5.0 | 0.00 | 0.00 | 0.00 | 69 | 1010.8 |
| 20260505030017 | 58 | 282 | 1.0 | 2.0 | 0.00 | 0.00 | 0.00 | 70 | 1011.0 |
| 20260505024533 | 58 | 279 | 2.0 | 7.0 | 0.00 | 0.00 | 0.00 | 69 | 1011.2 |
| 20260505023015 | 57 | 284 | 2.0 | 6.0 | 0.00 | 0.00 | 0.00 | 70 | 1011.5 |
| 20260505021526 | 56 | 281 | 2.0 | 6.0 | 0.00 | 0.00 | 0.00 | 74 | 1011.7 |
| 20260505020010 | 56 | 281 | 0.0 | 1.0 | 0.00 | 0.00 | 0.00 | 75 | 1012.0 |
| 20260505014509 | 56 | 281 | 0.0 | 1.0 | 0.00 | 0.00 | 0.00 | 74 | 1012.0 |
| 20260505013008 | 57 | 281 | 0.0 | 3.0 | 0.00 | 0.00 | 0.00 | 70 | 1012.0 |
| 20260505011508 | 57 | 281 | 1.0 | 3.0 | 0.00 | 0.00 | 0.00 | 69 | 1012.2 |
| 20260505010004 | 57 | 281 | 0.0 | 3.0 | 0.00 | 0.00 | 0.00 | 70 | 1012.5 |
| 20260505004501 | 56 | 273 | 0.0 | 2.0 | 0.00 | 0.00 | 0.00 | 72 | 1012.8 |
| 20260505003058 | 56 | 273 | 0.0 | 0.0 | 0.00 | 0.00 | 0.00 | 74 | 1013.0 |